• In India
  • List of Countries
  • For 7 days
  • Water Temperature
  • Satellite Maps
  • Weather Map
  • Weather Widgets
  • user-avatar
    Login

    Hourly Weather Miedzybrodzie Zywieckie

    Today, 23 November, Thursday

    Time Temperature Precipitation Wind Pressure Humidity
    00:00 +2°C° 0 mm 2 mps 704 mmHg 89%
    01:00 +2°C° 0 mm 2 mps 704 mmHg 89%
    02:00 +2°C° 0 mm 2 mps 704 mmHg 88%
    03:00 +2°C° 0 mm 2 mps 704 mmHg 88%
    04:00 +2°C° 0 mm 2 mps 704 mmHg 87%
    05:00 +2°C° 0 mm 2 mps 704 mmHg 86%
    06:00 +2°C° 0 mm 2 mps 705 mmHg 86%
    07:00 -1°C° 0 mm 2 mps 705 mmHg 86%
    08:00 +2°C° 0 mm 2 mps 705 mmHg 82%
    09:00 +4°C° 0 mm 2 mps 705 mmHg 78%
    10:00 +5°C° 0 mm 2 mps 705 mmHg 74%
    11:00 +6°C° 0 mm 2 mps 705 mmHg 73%
    12:00 +7°C° 0 mm 2 mps 706 mmHg 71%
    13:00 +8°C° 0 mm 2 mps 706 mmHg 70%
    14:00 +7°C° 0 mm 2 mps 705 mmHg 74%
    15:00 +6°C° 0 mm 2 mps 705 mmHg 78%
    16:00 +4°C° 0 mm 2 mps 705 mmHg 83%
    17:00 +4°C° 0 mm 2 mps 705 mmHg 84%
    18:00 +3°C° 0 mm 2 mps 706 mmHg 86%
    19:00 +1°C° 0 mm 3 mps 706 mmHg 88%
    20:00 +1°C° 0 mm 3 mps 706 mmHg 88%
    21:00 +1°C° 0 mm 3 mps 706 mmHg 89%
    22:00 +1°C° 0 mm 3 mps 706 mmHg 89%
    23:00 +2°C° 0 mm 2 mps 706 mmHg 90%

    Tomorrow, 24 November, Friday

    Time Temperature Precipitation Wind Pressure Humidity
    00:00 +2°C° 0 mm 2 mps 707 mmHg 91%
    01:00 +2°C° 0 mm 2 mps 707 mmHg 92%
    02:00 +2°C° 0 mm 2 mps 707 mmHg 92%
    03:00 +2°C° 0 mm 2 mps 707 mmHg 92%
    04:00 +2°C° 0 mm 2 mps 707 mmHg 92%
    05:00 +2°C° 0 mm 2 mps 707 mmHg 91%
    06:00 +2°C° 0 mm 2 mps 707 mmHg 91%
    07:00 +2°C° 0 mm 2 mps 707 mmHg 91%
    08:00 +3°C° 0 mm 2 mps 707 mmHg 88%
    09:00 +5°C° 0 mm 2 mps 707 mmHg 84%
    10:00 +6°C° 0 mm 2 mps 708 mmHg 81%
    11:00 +7°C° 0 mm 2 mps 707 mmHg 79%
    12:00 +8°C° 0 mm 2 mps 707 mmHg 77%
    13:00 +9°C° 0 mm 2 mps 707 mmHg 75%
    14:00 +8°C° 0 mm 2 mps 707 mmHg 79%
    15:00 +7°C° 0 mm 2 mps 707 mmHg 84%
    16:00 +5°C° 0 mm 2 mps 706 mmHg 88%
    17:00 +5°C° 0 mm 2 mps 706 mmHg 88%
    18:00 +4°C° 0 mm 3 mps 706 mmHg 89%
    19:00 +3°C° 0 mm 3 mps 706 mmHg 89%
    20:00 +3°C° 0 mm 3 mps 706 mmHg 88%
    21:00 +3°C° 0 mm 3 mps 706 mmHg 87%
    22:00 +3°C° 0 mm 3 mps 706 mmHg 87%
    23:00 +4°C° 0 mm 2 mps 707 mmHg 87%

    Day after tomorrow, 25 November, Saturday

    Time Temperature Precipitation Wind Pressure Humidity
    00:00 +3°C° 0 mm 2 mps 707 mmHg 87%
    01:00 +3°C° 0 mm 2 mps 707 mmHg 88%
    02:00 +3°C° 0 mm 2 mps 707 mmHg 88%
    03:00 +3°C° 0 mm 2 mps 706 mmHg 89%
    04:00 +3°C° 0 mm 2 mps 706 mmHg 89%
    05:00 +2°C° 0 mm 2 mps 706 mmHg 89%
    06:00 +3°C° 0 mm 1 mps 706 mmHg 88%
    07:00 +3°C° 0 mm 1 mps 706 mmHg 88%
    08:00 +3°C° 0 mm 2 mps 705 mmHg 85%
    09:00 +4°C° 0 mm 2 mps 705 mmHg 81%
    10:00 +5°C° 0 mm 2 mps 705 mmHg 78%
    11:00 +5°C° 0 mm 3 mps 704 mmHg 76%
    12:00 +7°C° 0 mm 3 mps 703 mmHg 74%
    13:00 +7°C° 0 mm 4 mps 703 mmHg 72%
    14:00 +7°C° 0 mm 3 mps 702 mmHg 75%
    15:00 +7°C° 0 mm 3 mps 701 mmHg 78%
    16:00 +5°C° 0 mm 3 mps 701 mmHg 81%
    17:00 +5°C° 0.1 mm 3 mps 700 mmHg 82%
    18:00 +5°C° 0.1 mm 3 mps 700 mmHg 83%
    19:00 +5°C° 0.1 mm 3 mps 700 mmHg 83%
    20:00 +5°C° 0.1 mm 4 mps 700 mmHg 83%
    21:00 +5°C° 0.1 mm 4 mps 700 mmHg 83%
    22:00 +5°C° 0.1 mm 4 mps 700 mmHg 83%
    23:00 +5°C° 0.1 mm 4 mps 700 mmHg 84%

    26 November, Sunday

    Time Temperature Precipitation Wind Pressure Humidity
    00:00 +5°C° 0.1 mm 4 mps 700 mmHg 85%
    01:00 +4°C° 0.1 mm 4 mps 700 mmHg 87%
    02:00 +4°C° 0.2 mm 4 mps 700 mmHg 84%
    03:00 +4°C° 0.2 mm 4 mps 700 mmHg 82%
    04:00 +2°C° 0.2 mm 5 mps 700 mmHg 80%
    05:00 +3°C° 0.3 mm 4 mps 701 mmHg 80%
    06:00 +1°C° 0.3 mm 4 mps 701 mmHg 80%
    07:00 +1°C° 0.3 mm 4 mps 702 mmHg 80%
    08:00 +1°C° 0.1 mm 4 mps 702 mmHg 80%
    09:00 +1°C° 0.1 mm 4 mps 703 mmHg 80%
    10:00 +1°C° 0.1 mm 4 mps 704 mmHg 80%
    11:00 0°C° 0.2 mm 4 mps 704 mmHg 79%
    12:00 0°C° 0.2 mm 4 mps 705 mmHg 77%
    13:00 0°C° 0.2 mm 4 mps 705 mmHg 75%
    14:00 +1°C° 0.1 mm 3 mps 705 mmHg 76%
    15:00 0°C° 0.1 mm 3 mps 706 mmHg 77%
    16:00 +1°C° 0.1 mm 2 mps 706 mmHg 78%
    17:00 +1°C° 0.1 mm 2 mps 707 mmHg 80%
    18:00 -1°C° 0.1 mm 2 mps 707 mmHg 82%
    19:00 -1°C° 0.1 mm 2 mps 707 mmHg 84%
    20:00 -2°C° 0 mm 2 mps 708 mmHg 85%
    21:00 -2°C° 0 mm 2 mps 708 mmHg 85%
    22:00 -2°C° 0 mm 2 mps 708 mmHg 86%
    23:00 -3°C° 0 mm 2 mps 708 mmHg 87%

    27 November, Monday

    Time Temperature Precipitation Wind Pressure Humidity
    00:00 -3°C° 0 mm 2 mps 708 mmHg 87%
    01:00 -4°C° 0 mm 2 mps 708 mmHg 87%
    02:00 -4°C° 0 mm 2 mps 708 mmHg 87%
    03:00 -4°C° 0 mm 2 mps 708 mmHg 87%
    04:00 -5°C° 0 mm 2 mps 708 mmHg 87%
    05:00 -5°C° 0 mm 2 mps 708 mmHg 87%
    06:00 -5°C° 0 mm 2 mps 708 mmHg 86%
    07:00 -5°C° 0 mm 2 mps 708 mmHg 86%
    08:00 -4°C° 0 mm 2 mps 708 mmHg 82%
    09:00 -3°C° 0 mm 2 mps 709 mmHg 78%
    10:00 -2°C° 0 mm 2 mps 709 mmHg 74%
    11:00 -1°C° 0 mm 3 mps 708 mmHg 72%
    12:00 0°C° 0 mm 3 mps 708 mmHg 70%
    13:00 0°C° 0 mm 3 mps 708 mmHg 68%
    14:00 -1°C° 0 mm 2 mps 708 mmHg 73%
    15:00 -1°C° 0 mm 2 mps 708 mmHg 77%
    16:00 -2°C° 0 mm 2 mps 708 mmHg 81%
    17:00 -3°C° 0 mm 2 mps 708 mmHg 83%
    18:00 -3°C° 0 mm 2 mps 708 mmHg 85%
    19:00 -3°C° 0 mm 2 mps 708 mmHg 86%
    20:00 -4°C° 0 mm 2 mps 708 mmHg 87%
    21:00 -4°C° 0 mm 2 mps 708 mmHg 87%
    22:00 -4°C° 0 mm 2 mps 707 mmHg 88%
    23:00 -4°C° 0 mm 2 mps 707 mmHg 88%

    28 November, Tuesday

    Time Temperature Precipitation Wind Pressure Humidity
    00:00 -4°C° 0 mm 2 mps 707 mmHg 88%
    01:00 -4°C° 0 mm 2 mps 706 mmHg 88%
    02:00 -4°C° 0 mm 2 mps 706 mmHg 87%
    03:00 -4°C° 0 mm 2 mps 706 mmHg 87%
    04:00 -5°C° 0 mm 2 mps 705 mmHg 86%
    05:00 -5°C° 0 mm 2 mps 705 mmHg 85%
    06:00 -5°C° 0 mm 2 mps 705 mmHg 84%
    07:00 -5°C° 0 mm 2 mps 705 mmHg 83%
    08:00 -4°C° 0 mm 3 mps 705 mmHg 78%
    09:00 -2°C° 0 mm 3 mps 705 mmHg 72%
    10:00 -2°C° 0 mm 4 mps 705 mmHg 67%
    11:00 -2°C° 0 mm 4 mps 704 mmHg 65%
    12:00 -1°C° 0 mm 4 mps 704 mmHg 63%
    13:00 0°C° 0 mm 4 mps 703 mmHg 61%
    14:00 -1°C° 0 mm 4 mps 703 mmHg 64%
    15:00 -1°C° 0 mm 3 mps 703 mmHg 68%
    16:00 -2°C° 0 mm 3 mps 703 mmHg 71%
    17:00 -2°C° 0 mm 3 mps 703 mmHg 72%
    18:00 -4°C° 0 mm 3 mps 703 mmHg 73%
    19:00 -4°C° 0 mm 3 mps 703 mmHg 73%
    20:00 -4°C° 0 mm 3 mps 703 mmHg 74%
    21:00 -4°C° 0 mm 3 mps 703 mmHg 74%
    22:00 -4°C° 0 mm 3 mps 703 mmHg 74%
    23:00 -3°C° 0 mm 2 mps 703 mmHg 75%
    Show more